| time (UTC) | temp F | wind direction | speed MPH | gust MPH | rain 1hr in | rain 24hr in | rain mn in | humidity % | barometer mb |
| 20260504060205 | 51 | 5 | 2.0 | 5.0 | 0.00 | 0.00 | 0.00 | 84 | 1015.9 |
| 20260504050704 | 53 | 16 | 1.0 | 4.0 | 0.00 | 0.00 | 0.00 | 81 | 1015.8 |
| 20260504050204 | 54 | 42 | 1.0 | 4.0 | 0.00 | 0.00 | 0.00 | 81 | 1015.9 |
| 20260504045704 | 54 | 19 | 0.0 | 0.0 | 0.00 | 0.00 | 0.00 | 81 | 1015.7 |
| 20260504045204 | 54 | 31 | 0.0 | 0.0 | 0.00 | 0.00 | 0.00 | 81 | 1015.7 |
| 20260504044705 | 54 | 31 | 0.0 | 0.0 | 0.00 | 0.00 | 0.00 | 80 | 1015.7 |
| 20260504044204 | 55 | 31 | 0.0 | 0.0 | 0.00 | 0.00 | 0.00 | 80 | 1015.5 |
| 20260504043704 | 55 | 31 | 0.0 | 0.0 | 0.00 | 0.00 | 0.00 | 80 | 1015.5 |
| 20260504043205 | 55 | 255 | 0.0 | 0.0 | 0.00 | 0.00 | 0.00 | 80 | 1015.5 |
| 20260504042704 | 56 | 255 | 0.0 | 0.0 | 0.00 | 0.00 | 0.00 | 80 | 1015.4 |
| 20260504042204 | 56 | 255 | 0.0 | 0.0 | 0.00 | 0.00 | 0.00 | 79 | 1015.4 |
| 20260504041705 | 56 | 255 | 0.0 | 0.0 | 0.00 | 0.00 | 0.00 | 79 | 1015.2 |
| 20260504041204 | 56 | 255 | 0.0 | 0.0 | 0.00 | 0.00 | 0.00 | 79 | 1015.1 |
| 20260504040704 | 56 | 255 | 0.0 | 0.0 | 0.00 | 0.00 | 0.00 | 79 | 1015.0 |
| 20260504040204 | 56 | 255 | 0.0 | 0.0 | 0.00 | 0.00 | 0.00 | 79 | 1015.0 |
| 20260504035704 | 56 | 291 | 0.0 | 2.0 | 0.00 | 0.00 | 0.00 | 78 | 1014.9 |
| 20260504035205 | 56 | 291 | 0.0 | 3.0 | 0.00 | 0.00 | 0.00 | 78 | 1014.9 |
| 20260504034704 | 56 | 265 | 1.0 | 4.0 | 0.00 | 0.00 | 0.00 | 78 | 1014.8 |
| 20260504034203 | 57 | 265 | 1.0 | 4.0 | 0.00 | 0.00 | 0.00 | 78 | 1014.8 |
| 20260504033204 | 57 | 254 | 0.0 | 4.0 | 0.00 | 0.00 | 0.00 | 77 | 1014.8 |
| 20260504032705 | 57 | 234 | 1.0 | 5.0 | 0.00 | 0.00 | 0.00 | 77 | 1014.7 |
| 20260504032206 | 57 | 261 | 2.0 | 6.0 | 0.00 | 0.00 | 0.00 | 77 | 1014.6 |
| 20260504031704 | 57 | 265 | 3.0 | 6.0 | 0.00 | 0.00 | 0.00 | 76 | 1014.6 |
| 20260504030705 | 57 | 244 | 3.0 | 7.0 | 0.00 | 0.00 | 0.00 | 75 | 1014.6 |
| 20260504030205 | 58 | 235 | 3.0 | 7.0 | 0.00 | 0.00 | 0.00 | 75 | 1014.5 |
| 20260504025705 | 58 | 285 | 3.0 | 7.0 | 0.00 | 0.00 | 0.00 | 74 | 1014.4 |
| 20260504025204 | 58 | 232 | 3.0 | 7.0 | 0.00 | 0.00 | 0.00 | 74 | 1014.4 |
| 20260504024205 | 58 | 265 | 4.0 | 8.0 | 0.00 | 0.00 | 0.00 | 72 | 1014.2 |
| 20260504023704 | 59 | 233 | 4.0 | 8.0 | 0.00 | 0.00 | 0.00 | 71 | 1014.1 |
| 20260504023206 | 59 | 307 | 3.0 | 8.0 | 0.00 | 0.00 | 0.00 | 71 | 1014.1 |
| 20260504022706 | 59 | 232 | 3.0 | 7.0 | 0.00 | 0.00 | 0.00 | 71 | 1014.2 |
| 20260504021705 | 60 | 248 | 3.0 | 10.0 | 0.00 | 0.00 | 0.00 | 69 | 1014.1 |
| 20260504020704 | 60 | 246 | 5.0 | 10.0 | 0.00 | 0.00 | 0.00 | 69 | 1014.1 |
| 20260504020205 | 60 | 256 | 5.0 | 9.0 | 0.00 | 0.00 | 0.00 | 69 | 1014.2 |
| 20260504014205 | 60 | 238 | 5.0 | 9.0 | 0.00 | 0.00 | 0.00 | 69 | 1014.3 |
| 20260504013705 | 60 | 241 | 5.0 | 12.0 | 0.00 | 0.00 | 0.00 | 69 | 1014.3 |
| 20260504013204 | 61 | 268 | 5.0 | 12.0 | 0.00 | 0.00 | 0.00 | 70 | 1014.3 |
| 20260504012704 | 61 | 232 | 5.0 | 12.0 | 0.00 | 0.00 | 0.00 | 70 | 1014.3 |
| 20260504012204 | 61 | 221 | 5.0 | 10.0 | 0.00 | 0.00 | 0.00 | 70 | 1014.3 |
| 20260504011205 | 62 | 198 | 4.0 | 9.0 | 0.00 | 0.00 | 0.00 | 69 | 1014.4 |
| 20260504010705 | 62 | 215 | 4.0 | 9.0 | 0.00 | 0.00 | 0.00 | 70 | 1014.3 |
| 20260504010205 | 62 | 218 | 4.0 | 9.0 | 0.00 | 0.00 | 0.00 | 70 | 1014.3 |
| 20260504005704 | 62 | 223 | 4.0 | 11.0 | 0.00 | 0.00 | 0.00 | 70 | 1014.3 |
| 20260504005204 | 62 | 280 | 4.0 | 11.0 | 0.00 | 0.00 | 0.00 | 69 | 1014.2 |
| 20260504004705 | 61 | 267 | 4.0 | 12.0 | 0.00 | 0.00 | 0.00 | 70 | 1014.1 |
| 20260504004204 | 61 | 252 | 5.0 | 12.0 | 0.00 | 0.00 | 0.00 | 70 | 1014.2 |
| 20260504003705 | 61 | 236 | 5.0 | 12.0 | 0.00 | 0.00 | 0.00 | 70 | 1014.1 |
| 20260504003204 | 61 | 259 | 5.0 | 12.0 | 0.00 | 0.00 | 0.00 | 71 | 1014.2 |
| 20260504002704 | 60 | 248 | 6.0 | 12.0 | 0.00 | 0.00 | 0.00 | 70 | 1014.1 |
| 20260504002204 | 61 | 213 | 6.0 | 12.0 | 0.00 | 0.00 | 0.00 | 70 | 1014.1 |
| 20260504001204 | 62 | 197 | 5.0 | 9.0 | 0.00 | 0.00 | 0.00 | 67 | 1014.1 |
| 20260504000704 | 62 | 248 | 4.0 | 15.0 | 0.00 | 0.00 | 0.00 | 69 | 1014.1 |
| 20260504000205 | 62 | 205 | 5.0 | 15.0 | 0.00 | 0.00 | 0.00 | 70 | 1014.0 |
| 20260503235706 | 62 | 219 | 6.0 | 15.0 | 0.00 | 0.00 | 0.00 | 70 | 1014.0 |
| 20260503235204 | 62 | 197 | 7.0 | 14.0 | 0.00 | 0.00 | 0.00 | 70 | 1014.0 |
| 20260503234205 | 61 | 215 | 5.0 | 12.0 | 0.00 | 0.00 | 0.00 | 72 | 1013.9 |
| 20260503233704 | 61 | 238 | 6.0 | 12.0 | 0.00 | 0.00 | 0.00 | 72 | 1014.0 |
| 20260503233204 | 61 | 210 | 6.0 | 10.0 | 0.00 | 0.00 | 0.00 | 70 | 1014.0 |
| 20260503232704 | 61 | 211 | 6.0 | 10.0 | 0.00 | 0.00 | 0.00 | 70 | 1014.0 |
| 20260503231705 | 62 | 221 | 5.0 | 12.0 | 0.00 | 0.00 | 0.00 | 68 | 1013.9 |
| 20260503230704 | 62 | 219 | 4.0 | 12.0 | 0.00 | 0.00 | 0.00 | 69 | 1013.9 |
| 20260503230206 | 62 | 202 | 4.0 | 12.0 | 0.00 | 0.00 | 0.00 | 70 | 1013.9 |
| 20260503225705 | 62 | 236 | 5.0 | 13.0 | 0.00 | 0.00 | 0.00 | 72 | 1014.0 |
| 20260503225205 | 62 | 236 | 6.0 | 13.0 | 0.00 | 0.00 | 0.00 | 71 | 1014.1 |
| 20260503224704 | 62 | 245 | 5.0 | 13.0 | 0.00 | 0.00 | 0.00 | 70 | 1014.2 |
| 20260503224204 | 62 | 178 | 4.0 | 10.0 | 0.00 | 0.00 | 0.00 | 71 | 1014.3 |
| 20260503223204 | 62 | 202 | 4.0 | 10.0 | 0.00 | 0.00 | 0.00 | 70 | 1014.3 |
| 20260503222705 | 63 | 200 | 5.0 | 10.0 | 0.00 | 0.00 | 0.00 | 71 | 1014.4 |
| 20260503222204 | 63 | 169 | 5.0 | 10.0 | 0.00 | 0.00 | 0.00 | 69 | 1014.3 |
| 20260503220206 | 63 | 253 | 6.0 | 12.0 | 0.00 | 0.00 | 0.00 | 68 | 1014.5 |
| 20260503215705 | 63 | 220 | 5.0 | 12.0 | 0.00 | 0.00 | 0.00 | 68 | 1014.5 |
| 20260503214704 | 63 | 193 | 6.0 | 12.0 | 0.00 | 0.00 | 0.00 | 67 | 1014.5 |
| 20260503214204 | 63 | 180 | 6.0 | 12.0 | 0.00 | 0.00 | 0.00 | 67 | 1014.5 |
| 20260503213205 | 63 | 197 | 6.0 | 12.0 | 0.00 | 0.00 | 0.00 | 66 | 1014.3 |
| 20260503212704 | 62 | 166 | 6.0 | 13.0 | 0.00 | 0.00 | 0.00 | 68 | 1014.3 |
| 20260503211705 | 61 | 157 | 6.0 | 13.0 | 0.00 | 0.00 | 0.00 | 72 | 1014.3 |
| 20260503210704 | 61 | 196 | 5.0 | 10.0 | 0.00 | 0.00 | 0.00 | 71 | 1014.3 |
| 20260503210205 | 61 | 257 | 4.0 | 10.0 | 0.00 | 0.00 | 0.00 | 69 | 1014.3 |
| 20260503205204 | 61 | 227 | 4.0 | 9.0 | 0.00 | 0.00 | 0.00 | 71 | 1014.3 |
| 20260503204704 | 61 | 218 | 3.0 | 8.0 | 0.00 | 0.00 | 0.00 | 73 | 1014.2 |
| 20260503203705 | 61 | 236 | 4.0 | 13.0 | 0.00 | 0.00 | 0.00 | 74 | 1014.3 |
| 20260503203204 | 60 | 200 | 5.0 | 13.0 | 0.00 | 0.00 | 0.00 | 75 | 1014.4 |
| 20260503202705 | 60 | 205 | 4.0 | 13.0 | 0.00 | 0.00 | 0.00 | 77 | 1014.5 |
| 20260503202204 | 60 | 178 | 4.0 | 9.0 | 0.00 | 0.00 | 0.00 | 78 | 1014.6 |
| 20260503201705 | 60 | 180 | 5.0 | 12.0 | 0.00 | 0.00 | 0.00 | 78 | 1014.6 |
| 20260503201205 | 60 | 213 | 4.0 | 12.0 | 0.00 | 0.00 | 0.00 | 79 | 1014.7 |
| 20260503200705 | 60 | 168 | 5.0 | 12.0 | 0.00 | 0.00 | 0.00 | 79 | 1014.7 |
| 20260503200206 | 60 | 132 | 5.0 | 13.0 | 0.00 | 0.00 | 0.00 | 79 | 1014.7 |
| 20260503195204 | 60 | 216 | 5.0 | 13.0 | 0.00 | 0.00 | 0.00 | 79 | 1014.6 |
| 20260503194705 | 60 | 156 | 6.0 | 11.0 | 0.00 | 0.00 | 0.00 | 79 | 1014.7 |
| 20260503194204 | 60 | 250 | 6.0 | 11.0 | 0.00 | 0.00 | 0.00 | 79 | 1014.7 |
| 20260503193706 | 60 | 157 | 5.0 | 12.0 | 0.00 | 0.00 | 0.00 | 79 | 1014.6 |
| 20260503193205 | 60 | 186 | 5.0 | 12.0 | 0.00 | 0.00 | 0.00 | 79 | 1014.6 |
| 20260503192704 | 60 | 182 | 5.0 | 12.0 | 0.00 | 0.00 | 0.00 | 79 | 1014.7 |
| 20260503192204 | 60 | 175 | 5.0 | 12.0 | 0.00 | 0.00 | 0.00 | 78 | 1014.7 |
| 20260503191705 | 61 | 213 | 4.0 | 11.0 | 0.00 | 0.00 | 0.00 | 78 | 1014.6 |
| 20260503191204 | 61 | 199 | 5.0 | 13.0 | 0.00 | 0.00 | 0.00 | 78 | 1014.6 |
| 20260503190704 | 60 | 196 | 5.0 | 13.0 | 0.00 | 0.00 | 0.00 | 79 | 1014.6 |
| 20260503190203 | 60 | 211 | 6.0 | 13.0 | 0.00 | 0.00 | 0.00 | 79 | 1014.6 |
| 20260503185705 | 60 | 181 | 7.0 | 12.0 | 0.00 | 0.00 | 0.00 | 79 | 1014.6 |
| 20260503185204 | 60 | 161 | 6.0 | 12.0 | 0.00 | 0.00 | 0.00 | 78 | 1014.6 |
| 20260503184205 | 60 | 221 | 6.0 | 11.0 | 0.00 | 0.00 | 0.00 | 77 | 1014.6 |
| 20260503183205 | 60 | 222 | 4.0 | 9.0 | 0.00 | 0.00 | 0.00 | 78 | 1014.5 |
| 20260503182705 | 60 | 237 | 4.0 | 9.0 | 0.00 | 0.00 | 0.00 | 77 | 1014.4 |
| 20260503182204 | 60 | 199 | 4.0 | 8.0 | 0.00 | 0.00 | 0.00 | 78 | 1014.4 |
| 20260503181704 | 60 | 174 | 4.0 | 8.0 | 0.00 | 0.00 | 0.00 | 78 | 1014.3 |
| 20260503181205 | 60 | 209 | 4.0 | 7.0 | 0.00 | 0.00 | 0.00 | 79 | 1014.4 |
| 20260503180704 | 60 | 212 | 4.0 | 8.0 | 0.00 | 0.00 | 0.00 | 79 | 1014.4 |
| 20260503180204 | 59 | 205 | 3.0 | 8.0 | 0.00 | 0.00 | 0.00 | 80 | 1014.4 |
| 20260503175705 | 59 | 196 | 4.0 | 7.0 | 0.00 | 0.00 | 0.00 | 80 | 1014.4 |
| 20260503175204 | 59 | 199 | 3.0 | 10.0 | 0.00 | 0.00 | 0.00 | 79 | 1014.4 |
| 20260503174705 | 59 | 223 | 4.0 | 10.0 | 0.00 | 0.00 | 0.00 | 80 | 1014.5 |
| 20260503174204 | 59 | 198 | 5.0 | 11.0 | 0.00 | 0.00 | 0.00 | 79 | 1014.4 |
| 20260503173705 | 59 | 231 | 5.0 | 11.0 | 0.00 | 0.00 | 0.00 | 79 | 1014.4 |
| 20260503173206 | 59 | 237 | 5.0 | 10.0 | 0.00 | 0.00 | 0.00 | 79 | 1014.3 |
| 20260503172704 | 59 | 166 | 5.0 | 10.0 | 0.00 | 0.00 | 0.00 | 79 | 1014.3 |
| 20260503172204 | 59 | 194 | 5.0 | 10.0 | 0.00 | 0.00 | 0.00 | 79 | 1014.3 |
| 20260503171704 | 59 | 197 | 5.0 | 9.0 | 0.00 | 0.00 | 0.00 | 79 | 1014.2 |
| 20260503171205 | 59 | 211 | 5.0 | 10.0 | 0.00 | 0.00 | 0.00 | 79 | 1014.3 |
| 20260503170704 | 59 | 208 | 5.0 | 10.0 | 0.00 | 0.00 | 0.00 | 79 | 1014.3 |
| 20260503170205 | 58 | 210 | 4.0 | 8.0 | 0.00 | 0.00 | 0.00 | 79 | 1014.2 |
| 20260503150704 | 54 | 244 | 5.0 | 9.0 | 0.00 | 0.00 | 0.00 | 89 | 1013.9 |
| 20260503140205 | 54 | 250 | 0.0 | 2.0 | 0.00 | 0.00 | 0.00 | 89 | 1013.0 |
| 20260503130704 | 54 | 265 | 0.0 | 0.0 | 0.00 | 0.00 | 0.00 | 89 | 1012.4 |
| 20260503130205 | 54 | 265 | 0.0 | 0.0 | 0.00 | 0.00 | 0.00 | 89 | 1012.4 |
| 20260503120204 | 54 | 304 | 0.0 | 0.0 | 0.00 | 0.00 | 0.00 | 88 | 1012.1 |
| 20260503110704 | 55 | 262 | 1.0 | 1.0 | 0.00 | 0.00 | 0.00 | 85 | 1012.3 |
| 20260503110205 | 55 | 304 | 0.0 | 4.0 | 0.00 | 0.00 | 0.00 | 85 | 1012.3 |
| 20260503100204 | 55 | 10 | 1.0 | 4.0 | 0.00 | 0.00 | 0.00 | 84 | 1012.2 |
| 20260503090204 | 55 | 301 | 0.0 | 1.0 | 0.00 | 0.00 | 0.00 | 83 | 1012.4 |
| 20260503081204 | 56 | 248 | 0.0 | 0.0 | 0.00 | 0.00 | 0.00 | 82 | 1012.7 |
| 20260503072705 | 56 | 90 | 0.0 | 0.0 | 0.00 | 0.00 | 0.00 | 81 | 1012.8 |
| 20260503072205 | 56 | 90 | 0.0 | 0.0 | 0.00 | 0.00 | 0.00 | 81 | 1012.8 |
| 20260503071204 | 56 | 90 | 0.0 | 0.0 | 0.00 | 0.00 | 0.00 | 81 | 1012.7 |
| 20260503070704 | 56 | 117 | 0.0 | 0.0 | 0.00 | 0.00 | 0.00 | 81 | 1012.7 |